Change the Weather History Date:

Thursday, August 8, 2013

  Actual Average Record
Temperature  
Mean Temperature 84 °F -  
Max Temperature 90 °F 87 °F 97 °F (2007)
Min Temperature 78 °F 71 °F 69 °F (1996)
Cooling Degree Days 19    
Growing Degree Days 34 (Base 50)    
Moisture  
Dew Point 74 °F    
Average Humidity 77    
Maximum Humidity 88    
Minimum Humidity 57    
Precipitation  
Precipitation 0.65 in - - ()
Sea Level Pressure  
Sea Level Pressure 30.02 in    
Wind  
Wind Speed 4 mph (SE)    
Max Wind Speed 18 mph    
Max Gust Speed 24 mph    
Visibility 9 miles    
Events Rain    
Averages and records for this station are not official NWS values.
T = Trace of Precipitation, MM = Missing Value Source: NWS Daily Summary

Daily Weather History Graph

Daily Weather History Graph

Search for Another Location

Airport or City:

Trip Planner

Search our weather history database for the weather conditions in past years. The results will help you decide how hot, cold, wet, or windy it might be!

Date:

Astronomy

Aug. 08, 2013 Rise Set
Actual Time 6:48 AM EDT 8:13 PM EDT
Civil Twilight 6:23 AM EDT 8:39 PM EDT
Nautical Twilight 5:52 AM EDT 9:10 PM EDT
Astronomical Twilight 5:20 AM EDT 9:41 PM EDT
Moon 8:22 AM EDT (8/8) 9:05 PM EDT (8/8)
Length of Visible Light 14h 16m
Length of Day
13h 25m
Waxing Crescent, 3% of the Moon is Illuminated
Aug 8
Waxing Crescent
Aug 14
First Quarter
Aug 20
Full
Aug 28
Last Quarter
Sep 5
New

Hourly Weather History & Observations

Time (EDT) Temp. Heat Index Dew Point Humidity Pressure Visibility Wind Dir Wind Speed Gust Speed Precip Events Conditions
12:53 AM 80.1 °F 85.1 °F 75.0 °F 85% 30.01 in 10.0 mi Calm Calm - N/A   Clear
1:53 AM 79.0 °F - 75.0 °F 88% 30.00 in 10.0 mi Calm Calm - N/A   Clear
2:53 AM 79.0 °F - 73.9 °F 84% 29.99 in 10.0 mi Calm Calm - N/A   Clear
3:53 AM 78.1 °F - 73.9 °F 87% 29.98 in 10.0 mi Calm Calm - N/A   Clear
4:53 AM 79.0 °F - 75.0 °F 88% 29.98 in 10.0 mi Calm Calm - N/A   Clear
5:53 AM 78.1 °F - 73.9 °F 87% 29.99 in 10.0 mi Calm Calm - N/A   Clear
6:53 AM 78.1 °F - 73.9 °F 87% 29.99 in 10.0 mi Calm Calm - N/A   Clear
7:53 AM 81.0 °F 87.9 °F 77.0 °F 88% 30.01 in 10.0 mi Calm Calm - N/A   Clear
8:53 AM 84.0 °F 93.7 °F 77.0 °F 79% 30.01 in 10.0 mi SE 5.8 mph - N/A   Scattered Clouds
9:02 AM 84.2 °F 92.3 °F 75.2 °F 74% 30.02 in 10.0 mi SSE 8.1 mph - N/A   Mostly Cloudy
9:28 AM 84.2 °F 92.3 °F 75.2 °F 74% 30.02 in 10.0 mi SSE 6.9 mph - N/A   Scattered Clouds
9:53 AM 82.9 °F 88.0 °F 72.0 °F 69% 30.02 in 10.0 mi East 3.5 mph - N/A   Scattered Clouds
10:53 AM 82.0 °F 88.6 °F 75.0 °F 79% 30.04 in 9.0 mi East 8.1 mph - 0.01 in Rain Light Rain
11:10 AM 78.8 °F - 71.6 °F 78% 30.04 in 1.5 mi SSE 18.4 mph 24.2 mph 0.22 in Rain Heavy Rain
11:28 AM 78.8 °F - 71.6 °F 78% 30.05 in 3.0 mi East 5.8 mph - 0.48 in Rain Rain
11:53 AM 79.0 °F - 73.0 °F 82% 30.04 in 8.0 mi East 10.4 mph - 0.52 in Rain Light Rain
12:53 PM 84.9 °F 91.4 °F 73.0 °F 67% 30.04 in 10.0 mi Calm Calm - 0.12 in   Scattered Clouds
1:53 PM 88.0 °F 96.5 °F 73.9 °F 63% 30.03 in 10.0 mi Calm Calm - 0.00 in   Clear
2:53 PM 89.1 °F 96.0 °F 72.0 °F 57% 30.02 in 10.0 mi SE 6.9 mph 16.1 mph N/A   Clear
3:53 PM 90.0 °F 97.9 °F 73.0 °F 57% 30.01 in 10.0 mi ESE 8.1 mph - N/A   Partly Cloudy
4:53 PM 90.0 °F 100.2 °F 75.0 °F 61% 30.01 in 10.0 mi ESE 12.7 mph - N/A   Clear
5:53 PM 87.1 °F 96.3 °F 75.0 °F 67% 30.00 in 10.0 mi SE 12.7 mph - N/A   Clear
6:53 PM 86.0 °F 95.1 °F 75.0 °F 70% 29.99 in 10.0 mi ESE 12.7 mph 21.9 mph N/A   Clear
7:53 PM 84.0 °F 91.9 °F 75.0 °F 74% 30.01 in 10.0 mi SE 8.1 mph - N/A   Clear
8:53 PM 82.9 °F 90.2 °F 75.0 °F 77% 30.03 in 10.0 mi ESE 3.5 mph - N/A   Clear
9:53 PM 82.0 °F 88.6 °F 75.0 °F 79% 30.06 in 10.0 mi SE 6.9 mph - N/A   Clear
10:53 PM 81.0 °F 86.7 °F 75.0 °F 82% 30.07 in 10.0 mi SSE 5.8 mph - N/A   Clear
11:53 PM 81.0 °F 86.7 °F 75.0 °F 82% 30.07 in 10.0 mi SSE 4.6 mph - N/A   Clear